POPACS 3 (39270 NORAD) Tracking and Keplerian Element Data

This shows tracking and keplerian element data for the satellite.

Feedback or suggestion? Click here.




ElementValue
Catalog39270
NamePOPACS 3
Epoch Orbit58704
Epoch Day35.0496559
Epoch Year2025
RAAN44.6557
Inclination81.0046
Eccentricity0.0600327
Argument of Perigee134.8267
Mean Anonmoly230.3374
Mean Motion14.44044537
Decay Rate0.00010976
L11 39270U 13055F 25035.04965590 .00010976 00000+0 28340-3 0 9990
L22 39270 81.0046 44.6557 0600327 134.8267 230.3374 14.44044537587044



Live tracking and technical data element details for POPACS 3 (NORAD 39270). POPACS 3 can be tracked NOW for your location showing map with azimuth and elevation plus other details from your city location.







IsCatalogInMostPopularTable: catalog: 39270, numindb: 288
Update: records affected: 1



GetName: 39270 POPACS 3

Hit Count: updated at: Thu, 22 May 2025 02:55:11 GMT